[TLELIST] Archives

 

[list_settings.list_name] Current TLEs

October 18th 2022 PST

HST 1 20580U 90037B 22290.84991531 .00003185 00000-0 17481-3 0 9990 2 20580 28.4701 77.5212 0002180 280.6923 234.4292 15.11075580584741 ISS (ZARYA) 1 25544U 98067A 22291.33650756 .00055030 00000-0 97976-3 0 9995 2 25544 51.6391 86.4728 0005223 350.8251 75.6247 15.49572996364289 CXO 1 25867U 99040B 22292.33471441 .00001072 00000-0 00000+0 0 9993 2 25867 42.0272 224.6281 8938827 240.9261 0.5135 0.37810244 23425 ____________________________________________________________________ These 2-Line ...Continue Reading

[list_settings.list_name] Current TLEs

October 17th 2022 PST

HST 1 20580U 90037B 22290.12505686 .00003316 00000-0 18248-3 0 9991 2 20580 28.4700 82.3280 0002170 272.2038 251.9589 15.11071114584902 ISS (ZARYA) 1 25544U 98067A 22290.37442299 .00015341 00000-0 27499-3 0 9993 2 25544 51.6430 91.2326 0003474 312.5230 142.6117 15.50128069364134 CXO 1 25867U 99040B 22292.33471441 .00001072 00000-0 00000+0 0 9993 2 25867 42.0272 224.6281 8938827 240.9261 0.5135 0.37810244 23425 ____________________________________________________________________ These 2-Line ...Continue Reading

[list_settings.list_name] Current TLEs

October 16th 2022 PST

HST 1 20580U 90037B 22288.86125052 .00003643 00000-0 20153-3 0 9995 2 20580 28.4696 90.7084 0002152 256.0358 219.5727 15.11062560584444 ISS (ZARYA) 1 25544U 98067A 22289.33654182 .00015402 00000-0 27641-3 0 9990 2 25544 51.6420 96.3732 0003215 306.3074 113.2019 15.50092886363973 CXO 1 25867U 99040B 22289.68646424 .00000967 00000-0 00000-0 0 9995 2 25867 42.0939 224.8766 8936772 240.7433 0.0453 0.37807401 12260 ____________________________________________________________________ These 2-Line ...Continue Reading

[list_settings.list_name] Current TLEs

October 15th 2022 PST

HST 1 20580U 90037B 22287.86992031 .00004008 00000-0 22285-3 0 9997 2 20580 28.4695 97.2826 0002168 244.6750 227.5762 15.11055709584293 ISS (ZARYA) 1 25544U 98067A 22288.30495581 .00014323 00000-0 25796-3 0 9992 2 25544 51.6419 101.4852 0003383 305.4235 113.7309 15.50055531363813 CXO 1 25867U 99040B 22287.04271729 .00000844 00000-0 00000-0 0 9999 2 25867 42.1583 225.1184 8934359 240.5643 0.1804 0.37807707 12242 ____________________________________________________________________ These 2-Line ...Continue Reading

[list_settings.list_name] Current TLEs

October 14th 2022 PST

HST 1 20580U 90037B 22286.80884896 .00003732 00000-0 20684-3 0 9993 2 20580 28.4693 104.3186 0002208 231.8538 216.9388 15.11046924584135 ISS (ZARYA) 1 25544U 98067A 22287.33849653 .00015893 00000-0 28554-3 0 9995 2 25544 51.6416 106.2726 0003335 303.0563 119.5614 15.50032296363667 CXO 1 25867U 99040B 22287.04271729 .00000844 00000-0 00000-0 0 9999 2 25867 42.1583 225.1184 8934359 240.5643 0.1804 0.37807707 12242 ____________________________________________________________________ These 2-Line ...Continue Reading

[list_settings.list_name] Current TLEs

October 13th 2022 PST

HST 1 20580U 90037B 22286.22805025 .00003903 00000-0 21683-3 0 9996 2 20580 28.4691 108.1701 0002227 225.1603 297.9545 15.11043010584315 ISS (ZARYA) 1 25544U 98067A 22286.37044549 .00016802 00000-0 30167-3 0 9993 2 25544 51.6416 111.0694 0003346 298.9538 118.3220 15.50004442363517 CXO 1 25867U 99040B 22287.04271729 .00000844 00000-0 00000-0 0 9999 2 25867 42.1583 225.1184 8934359 240.5643 0.1804 0.37807707 12242 ____________________________________________________________________ These 2-Line ...Continue Reading

[list_settings.list_name] Current TLEs

October 12th 2022 PST

HST 1 20580U 90037B 22284.90206428 .00004363 00000-0 24369-3 0 9996 2 20580 28.4690 116.9633 0002275 209.2792 286.5016 15.11033458583849 ISS (ZARYA) 1 25544U 98067A 22285.33911226 .00016681 00000-0 29995-3 0 9995 2 25544 51.6417 116.1789 0003225 293.3546 125.3296 15.49968613363353 CXO 1 25867U 99040B 22287.04271729 .00000844 00000-0 00000-0 0 9999 2 25867 42.1583 225.1184 8934359 240.5643 0.1804 0.37807707 12242 ____________________________________________________________________ These 2-Line ...Continue Reading

[list_settings.list_name] Current TLEs

October 11th 2022 PST

HST 1 20580U 90037B 22283.91088552 .00004625 00000-0 25901-3 0 9996 2 20580 28.4690 123.5362 0002321 197.1166 296.2402 15.11025175583691 ISS (ZARYA) 1 25544U 98067A 22284.19635433 .00016138 00000-0 29088-3 0 9991 2 25544 51.6421 121.8407 0003199 287.2183 230.8705 15.49927875363179 CXO 1 25867U 99040B 22287.04271785 .00000844 00000-0 00000+0 0 9990 2 25867 42.1603 225.1218 8934349 240.5605 0.1807 0.37808171 23409 ____________________________________________________________________ These 2-Line ...Continue Reading

[list_settings.list_name] Current TLEs

October 10th 2022 PST

HST 1 20580U 90037B 22282.89937715 .00004836 00000-0 27140-3 0 9997 2 20580 28.4690 130.2442 0002353 185.2803 194.8778 15.11016392583540 ISS (ZARYA) 1 25544U 98067A 22283.09776052 .00016212 00000-0 29255-3 0 9991 2 25544 51.6421 127.2836 0003082 282.1418 222.0997 15.49891447363004 CXO 1 25867U 99040B 22284.39852605 .00000783 00000-0 00000-0 0 9994 2 25867 42.2322 225.3780 8930668 240.3731 0.2631 0.37807060 12244 ____________________________________________________________________ These 2-Line ...Continue Reading

[list_settings.list_name] Current TLEs

October 9th 2022 PST

HST 1 20580U 90037B 22281.85165094 .00005029 00000-0 28273-3 0 9998 2 20580 28.4691 137.1917 0002405 173.7537 255.8365 15.11007062583384 ISS (ZARYA) 1 25544U 98067A 22282.32910569 .00015570 00000-0 28158-3 0 9996 2 25544 51.6425 131.0923 0002989 279.7168 252.9302 15.49863995362881 CXO 1 25867U 99040B 22284.39811730 .00000783 00000-0 00000-0 0 9998 2 25867 42.2341 225.3809 8930603 240.3693 0.2076 0.37809063 12230 ____________________________________________________________________ These 2-Line ...Continue Reading
  • This mailing list is a public mailing list - anyone may join or leave, at any time.
  • This mailing list is announce-only.

International Space Station (ISS) / Hubble Space Telescope (HST) / Chandra X-Ray Observatory Orbital Data via EMAIL

Privacy Policy:

Private list